Dewpoint
35 36 34 37 39 40 40 42 46 53 60 61 61 60 59 60 61 62 61 61 62 62 63 64 63 64 63 62 62 63 61 60 59 59 58 57 57 55 55 55 54 55 56
35 34 36 38 40 40 41 43 46 58 60 61 60 60 60 61 61 61 61 61 62 62 62 63 63 62 63 61 59 60 59 60 58 57 55 53 52 55 56 56 55 55 56
40 40 37 38 42 42 46 46 48 56 59 60 60 60 60 61 60 61 61 61 62 63 62 62 63 63 63 62 60 59 57 56 58 58 56 53 50 52 55 55 55 56 57
44 46 47 47 49 50 53 55 56 58 59 60 60 58 58 57 59 60 61 61 61 61 63 63 62 63 63 62 61 61 60 59 56 57 58 57 57 52 50 55 56 56 56
45 45 47 49 51 52 53 57 59 59 59 60 59 59 57 58 59 59 59 59 60 61 62 63 62 62 63 62 62 61 60 60 59 57 56 56 56 58 56 54 56 55 55
45 45 46 46 47 49 52 53 54 54 55 56 56 56 56 56 58 59 58 59 60 60 60 61 62 62 62 62 61 61 61 60 59 59 57 55 54 55 56 55 55 55 56
42 43 43 44 45 46 47 49 50 51 52 53 53 53 53 54 54 54 58 59 59 59 59 60 60 61 62 61 61 61 61 60 59 58 58 57 57 57 56 56 55 55 56
41 41 42 43 43 44 44 45 46 46 48 49 49 50 49 50 49 50 51 51 52 53 54 55 59 60 60 60 60 60 60 60 60 59 59 58 58 58 57 56 56 54 54
41 41 41 41 42 42 42 42 43 43 44 43 45 46 46 46 45 46 47 48 49 50 51 52 52 54 55 57 60 60 60 60 60 60 59 59 59 59 59 58 58 56 52
40 41 41 41 41 41 41 41 41 41 42 42 41 42 43 44 45 44 43 44 45 45 46 47 49 50 51 51 54 57 59 59 59 60 59 59 59 59 60 59 59 58 56
40 41 41 41 41 41 41 41 40 40 40 39 39 37 38 40 41 42 41 40 41 41 42 43 44 45 46 48 49 50 52 53 57 58 58 58 58 58 59 59 58 57 57
40 40 40 40 39 39 39 39 39 38 38 36 32 33 32 32 34 35 35 36 35 35 36 36 37 39 41 44 45 45 47 48 49 51 55 57 57 58 58 58 57 57 57
39 38 37 35 36 36 35 36 36 36 34 31 30 30 29 29 29 30 30 31 32 32 33 34 35 35 37 41 43 44 44 44 45 47 48 50 52 56 57 57 57 56 56
38 36 32 31 32 33 30 31 31 30 32 31 28 28 28 28 27 28 28 28 31 30 30 31 32 35 36 36 39 39 41 42 43 44 45 47 49 50 51 53 56 56 55
30 31 31 30 30 31 30 28 28 29 28 29 28 28 28 28 28 27 28 27 29 30 29 29 30 32 34 34 36 36 37 39 40 42 43 44 45 45 47 49 50 53 54
31 31 31 30 29 29 30 28 27 26 26 25 26 27 27 27 27 27 27 26 27 29 28 28 29 30 29 34 35 35 35 35 37 39 41 42 43 44 46 47 47 49 49
31 31 30 30 29 28 30 27 27 26 25 24 24 24 25 25 26 26 25 24 25 28 27 27 28 29 30 33 34 34 34 35 35 36 38 39 40 43 43 44 46 47 48
32 30 30 30 29 28 28 27 27 25 25 24 22 23 24 23 24 24 24 24 25 26 26 27 28 29 28 32 33 33 33 34 35 37 36 37 37 40 41 42 43 44 45
31 30 30 28 26 23 25 25 24 24 24 23 22 22 23 23 23 23 24 24 25 25 26 26 27 28 29 33 33 32 33 32 32 32 32 34 35 37 38 39 42 42 43
30 30 27 24 22 23 22 21 22 22 22 23 23 23 23 23 22 23 24 24 24 24 26 25 27 29 29 31 32 31 29 28 29 29 30 33 35 38 38 39 39 40 41
27 25 23 22 22 21 21 20 21 21 22 23 22 21 21 21 21 22 22 23 23 23 24 24 26 26 27 28 32 32 29 28 28 26 26 27 31 33 35 36 37 39 41
23 21 20 21 22 21 20 18 18 19 20 20 20 20 20 20 20 21 22 22 21 21 22 22 23 25 27 30 31 31 30 29 25 25 26 26 30 31 32 32 35 37 41
20 20 20 19 19 19 19 17 17 18 19 19 19 20 20 20 21 21 21 21 21 21 22 23 24 25 27 28 31 31 31 31 27 27 27 29 29 30 30 31 33 35 38
19 19 18 17 17 18 18 18 19 20 20 20 21 21 21 23 22 22 22 22 22 23 23 24 25 26 28 28 28 28 29 31 31 30 31 32 30 28 28 29 33 36 38
20 19 17 17 18 19 19 20 21 21 21 21 22 22 22 23 23 22 23 23 24 25 25 27 27 27 28 28 29 30 28 29 30 32 30 30 29 27 28 31 32 35 36
18 18 19 19 20 20 20 21 22 22 22 22 22 22 22 22 22 22 21 25 26 27 26 27 27 27 30 31 31 31 31 30 30 30 29 26 26 27 27 28 30 32 34
Lifted_Index
6 6 7 8 8 8 8 8 7 3 -0 -1 -2 -2 -2 -2 -1 -1 -0 0 1 1 1 1 1 1 1 1 1 2 2 2 2 2 3 3 4 4 4 4 4 5 5
5 5 5 6 7 7 7 7 5 2 -1 -2 -2 -2 -2 -2 -1 -1 -0 0 1 1 1 1 1 1 1 1 2 2 3 3 2 3 3 4 4 4 4 4 4 4 4
2 2 3 3 3 4 4 4 3 0 -2 -2 -2 -2 -2 -2 -1 -1 -1 -0 0 1 1 0 0 0 0 1 2 3 3 3 3 3 4 4 4 4 4 4 4 4 4
1 1 1 -0 -0 -0 0 0 -1 -2 -3 -2 -2 -2 -2 -2 -2 -1 -1 -0 0 0 0 0 0 0 0 1 2 3 3 3 3 3 4 4 4 4 3 4 4 4 4
2 1 1 -0 -1 -1 -1 -2 -3 -3 -3 -2 -2 -2 -2 -2 -2 -1 -1 -0 0 1 1 1 0 -0 0 1 2 2 2 2 2 3 3 4 4 3 3 3 3 3 3
2 2 2 0 -0 -0 -0 -1 -2 -2 -2 -2 -2 -2 -2 -2 -2 -1 -1 0 0 1 1 1 0 -0 0 1 1 1 1 1 1 2 2 3 3 3 3 2 2 2 2
2 2 2 1 0 0 0 0 -0 -0 -1 -1 -1 -1 -1 -1 -0 -0 -0 0 0 1 1 1 0 0 0 1 1 0 0 1 1 1 2 2 3 3 3 2 2 2 2
1 1 1 1 0 0 0 0 0 0 0 -0 -0 -0 0 0 1 1 1 0 1 1 1 1 1 0 1 1 1 0 1 1 1 1 2 2 3 2 2 2 2 1 2
2 2 1 1 1 0 0 1 1 1 1 1 2 2 2 2 2 2 2 2 2 2 3 2 2 1 1 1 1 1 1 1 1 1 2 2 2 2 2 2 2 2 2
4 3 3 2 2 2 2 2 2 2 3 3 4 4 4 4 4 4 4 4 5 6 6 6 5 4 3 3 2 2 2 2 2 2 2 2 2 2 2 2 2 2 2
5 5 5 4 4 4 4 4 4 4 4 5 6 6 7 7 7 6 6 7 8 9 10 10 9 8 7 6 5 4 3 3 3 3 2 2 2 2 2 2 2 2 2
6 6 6 5 5 5 5 5 5 5 5 6 7 7 8 9 9 9 9 9 10 11 12 12 11 11 11 10 9 7 6 5 4 4 3 3 3 3 2 2 2 3 3
6 6 6 6 6 7 7 7 7 7 7 8 9 9 11 11 12 12 12 12 12 13 13 14 14 14 13 13 12 11 10 9 8 6 5 4 3 3 3 2 2 3 3
6 6 7 7 8 8 9 9 9 10 10 11 11 12 13 13 14 14 15 15 15 15 16 16 16 16 16 15 15 14 13 12 11 10 9 8 6 5 4 3 3 3 3
6 7 7 7 8 9 10 11 11 12 12 13 13 14 15 15 15 16 16 16 17 17 18 18 18 18 18 18 17 17 16 15 14 14 13 12 11 9 7 6 4 3 3
7 7 8 8 9 10 11 11 12 13 14 14 15 15 16 17 17 18 18 18 19 19 20 20 20 20 20 20 19 19 19 18 17 16 16 16 15 13 11 9 7 6 5
8 8 9 9 10 11 11 12 13 14 15 16 16 17 18 18 19 20 20 20 20 21 21 21 21 21 22 22 21 21 21 20 20 19 18 18 17 16 15 13 11 9 8
9 9 9 10 11 12 12 13 14 15 16 17 18 19 20 20 20 21 21 21 22 22 22 22 22 23 23 23 23 22 22 22 22 21 20 19 19 18 17 15 14 12 11
9 9 10 10 11 12 13 14 15 16 17 18 20 20 21 21 21 21 22 22 22 22 22 23 23 23 24 24 23 23 23 23 23 23 22 21 20 19 18 17 16 15 14
9 10 10 11 12 13 14 15 17 18 19 20 21 22 22 22 22 22 23 23 23 23 23 23 24 24 24 24 24 24 24 24 24 24 24 23 22 21 20 19 18 17 16
10 10 11 12 13 14 16 17 18 19 21 21 22 22 23 23 23 23 23 24 24 24 24 24 24 24 25 25 25 24 24 24 24 25 25 24 24 23 22 21 20 18 17
11 11 11 13 14 16 17 18 19 20 21 21 22 22 23 23 23 23 23 23 23 23 23 23 24 24 24 24 24 24 24 24 24 25 25 25 24 23 22 21 19 17 16
11 11 12 13 15 17 19 19 19 20 20 21 21 21 21 22 22 22 22 22 22 22 23 23 23 24 24 24 24 24 24 24 24 24 24 23 22 20 18 17 15 13 12
11 12 13 14 16 18 19 19 19 20 20 20 20 20 20 21 21 22 22 22 22 22 23 23 23 24 24 24 24 24 23 22 21 20 19 18 17 15 14 13 11 10 9
11 12 14 15 17 18 18 19 19 19 19 19 19 20 20 20 20 21 21 21 22 23 23 24 24 24 24 23 22 21 19 17 16 15 14 13 12 12 11 10 9 8 8
12 13 14 15 16 17 18 18 19 18 18 18 19 19 19 20 20 20 20 21 22 23 24 24 24 24 23 22 20 18 16 14 12 11 10 10 10 10 10 9 9 8 8